Location: Newark
(35.6799°N, 139.7636°E)
Time: 00:03:47
(UTC+00:00)

Courier 1B Rocket - Pass Details

Date: 16 December 2019
Orbit: 920 x 1202 km, 28.2° (Epoch: 20 January)

Event Time Altitude Azimuth Distance (km) Brightness Sun altitude
Exits shadow 18:17:31 30° 135° (SE) 1,862 6.6 -41.0°
Drops below altitude 10° 18:21:58 10° 102° (ESE) 2,913 8.1 -40.1°
Sets 18:24:52 0° 94° (E) 3,824 9.0 -39.5°
